| time (UTC) | temp F | wind direction | speed knots | gust knots | rain 1hr in | rain 24hr in | rain mn in | humidity % | barometer mb |
| 20260504214537 | 63 | 0 | 0.0 | 3.5 | 0.16 | 1.48 | 1.48 | 99 | 1010.9 |
| 20260504213034 | 63 | 198 | 0.9 | 5.2 | 0.19 | 1.48 | 1.48 | 98 | 1010.9 |
| 20260504211543 | 63 | 12 | 2.6 | 7.0 | 0.33 | 1.47 | 1.47 | 98 | 1011.3 |
| 20260504210045 | 64 | 212 | 1.7 | 6.1 | 0.18 | 1.32 | 1.32 | 99 | 1011.5 |
| 20260504204547 | 64 | 205 | 4.3 | 7.8 | 0.18 | 1.31 | 1.31 | 99 | 1010.8 |
| 20260504203051 | 64 | 211 | 4.3 | 9.6 | 0.16 | 1.27 | 1.27 | 98 | 1011.0 |
| 20260504201535 | 65 | 153 | 3.5 | 8.7 | 0.05 | 1.14 | 1.14 | 99 | 1011.3 |
| 20260504200242 | 65 | 174 | 3.5 | 7.8 | 0.05 | 1.14 | 1.14 | 99 | 1011.0 |
| 20260504194540 | 64 | 251 | 1.7 | 7.8 | 0.04 | 1.13 | 1.13 | 98 | 1010.7 |
| 20260504193040 | 64 | 293 | 1.7 | 7.0 | 0.02 | 1.11 | 1.11 | 98 | 1010.8 |
| 20260504191542 | 64 | 285 | 1.7 | 6.1 | 0.00 | 1.08 | 1.08 | 98 | 1010.9 |
| 20260504190105 | 64 | 285 | 1.7 | 6.1 | 0.00 | 1.08 | 1.08 | 98 | 1011.0 |
| 20260504184542 | 64 | 260 | 2.6 | 6.1 | 0.00 | 1.08 | 1.08 | 98 | 1010.9 |
| 20260504183040 | 64 | 258 | 2.6 | 5.2 | 0.00 | 1.08 | 1.08 | 98 | 1011.0 |
| 20260504181542 | 64 | 281 | 0.9 | 6.1 | 0.00 | 1.07 | 1.07 | 98 | 1011.1 |
| 20260504180049 | 64 | 263 | 1.7 | 5.2 | 0.27 | 1.07 | 1.07 | 98 | 1011.3 |
| 20260504174543 | 65 | 273 | 0.0 | 4.3 | 0.50 | 1.07 | 1.07 | 98 | 1011.1 |
| 20260504173041 | 65 | 328 | 0.9 | 4.3 | 0.51 | 1.07 | 1.07 | 98 | 1011.4 |
| 20260504171542 | 66 | 304 | 3.5 | 7.0 | 0.51 | 1.07 | 1.07 | 99 | 1011.2 |
| 20260504081549 | 75 | 210 | 3.5 | 7.8 | 0.00 | 0.00 | 0.00 | 76 | 1008.3 |
| 20260504044539 | 61 | 288 | 0.0 | 2.6 | 0.00 | 0.00 | 0.00 | 74 | 1008.2 |
| 20260504043040 | 62 | 287 | 0.0 | 2.6 | 0.00 | 0.00 | 0.00 | 72 | 1008.0 |
| 20260504041535 | 64 | 295 | 0.0 | 2.6 | 0.00 | 0.00 | 0.00 | 68 | 1008.0 |
| 20260504040046 | 67 | 233 | 0.9 | 2.6 | 0.00 | 0.00 | 0.00 | 62 | 1008.1 |
| 20260504034543 | 67 | 196 | 0.0 | 0.9 | 0.00 | 0.00 | 0.00 | 65 | 1008.3 |
| 20260504033041 | 66 | 0 | 0.0 | 1.7 | 0.00 | 0.00 | 0.00 | 67 | 1008.2 |
| 20260504031539 | 62 | 279 | 0.0 | 1.7 | 0.00 | 0.00 | 0.00 | 74 | 1008.0 |
| 20260504030039 | 62 | 327 | 0.9 | 4.3 | 0.00 | 0.00 | 0.00 | 72 | 1007.8 |
| 20260504024547 | 63 | 338 | 0.9 | 3.5 | 0.00 | 0.00 | 0.00 | 71 | 1007.8 |
| 20260504023040 | 64 | 320 | 1.7 | 4.3 | 0.00 | 0.00 | 0.00 | 70 | 1007.9 |
| 20260504021540 | 65 | 313 | 1.7 | 3.5 | 0.00 | 0.00 | 0.00 | 67 | 1008.0 |
| 20260504020040 | 66 | 323 | 3.5 | 7.0 | 0.00 | 0.00 | 0.00 | 65 | 1008.1 |
| 20260504014550 | 66 | 331 | 3.5 | 7.8 | 0.00 | 0.00 | 0.00 | 66 | 1008.1 |
| 20260504013041 | 64 | 288 | 4.3 | 7.8 | 0.00 | 0.00 | 0.00 | 69 | 1008.0 |
| 20260504011547 | 69 | 323 | 4.3 | 9.6 | 0.00 | 0.00 | 0.00 | 61 | 1008.3 |
| 20260504010046 | 66 | 314 | 3.5 | 7.8 | 0.00 | 0.00 | 0.00 | 65 | 1008.4 |
| 20260504004542 | 64 | 325 | 3.5 | 6.1 | 0.00 | 0.00 | 0.00 | 71 | 1008.5 |
| 20260504003042 | 63 | 333 | 2.6 | 6.1 | 0.00 | 0.00 | 0.00 | 73 | 1008.6 |
| 20260504001547 | 63 | 326 | 3.5 | 5.2 | 0.00 | 0.00 | 0.00 | 72 | 1008.7 |
| 20260504000044 | 65 | 317 | 2.6 | 6.1 | 0.00 | 0.00 | 0.00 | 69 | 1008.9 |
| 20260503234536 | 66 | 319 | 3.5 | 5.2 | 0.00 | 0.00 | 0.00 | 67 | 1008.9 |
| 20260503233045 | 64 | 316 | 3.5 | 5.2 | 0.00 | 0.00 | 0.00 | 70 | 1009.1 |
| 20260503231544 | 65 | 295 | 3.5 | 7.0 | 0.00 | 0.00 | 0.00 | 69 | 1009.2 |
| 20260503230040 | 65 | 305 | 3.5 | 6.1 | 0.00 | 0.00 | 0.00 | 72 | 1009.3 |
| 20260503224543 | 61 | 299 | 3.5 | 6.1 | 0.00 | 0.00 | 0.00 | 79 | 1009.4 |
| 20260503223036 | 61 | 328 | 3.5 | 6.1 | 0.00 | 0.00 | 0.00 | 79 | 1009.5 |
| 20260503221555 | 60 | 313 | 3.5 | 6.1 | 0.00 | 0.00 | 0.00 | 81 | 1009.6 |
| 20260503220052 | 59 | 313 | 3.5 | 5.2 | 0.00 | 0.00 | 0.00 | 84 | 1009.6 |